Погода в Пачука-де-Сото

Мексика     20°07′14″N   98°44′11″W
темп.,
°C
ветер,
м/с
пор.,
м/с
влажн.,
%
обл.,
%
осадки,
мм/ч
давл.,
гПа
погр.,
м
6 марта, сб
сб600:00+11св35842 0.0 1017221
03:00+11св348736 0.0 1018302
06:00+11св347968 0.1 1019551
09:00+11св3370100 0.0 1021612
12:00+14св545471 0.0 1019758
15:00+19св42412 0.0 1015817
18:00+15св45571 0.0 1016434
21:00+10св3378100 0.0 1021213
7 марта, вс
вс700:00+9св238368 0.0 1022106
03:00+8всв11861 0.0 102181
06:00+8всв11861 0.0 102158
09:00+13ююз11600 0.0 1022275
12:00+21сз33330 0.0 10201342
15:00+22с65300 0.0 10171789
18:00+15св68530 0.0 1018483
21:00+10в347460 0.0 1024230
8 марта, пн
пн800:00+9св226849 0.0 102461
03:00+8св33770 0.0 102492
06:00+6св22892 0.0 1024132
09:00+10св227026 0.0 1026310
12:00+18с333613 0.0 10231064
15:00+21с54300 0.0 10201558
18:00+14св56600 0.0 1020424
21:00+9св458212 0.0 1025325
9 марта, вт
вт900:00+9всв238134 0.0 1026394
03:00+7вюв118353 0.0 1024150
06:00+5вюв118426 0.0 102472
09:00+12ссв11500 0.0 1025324
12:00+20ссз33210 0.0 10211183
15:00+22с54210 0.0 10171586
18:00+18ссв55405 0.0 1017672
21:00+10св33830 0.0 1021119
10 марта, ср
ср1000:00+9всв117216 0.0 102261
03:00+8ююз116096 0.0 102072
06:00+7юв115954 0.0 102038
09:00+15ююз11270 0.0 1020236
12:00+22с3490 0.0 10171506
15:00+24ссв65110 0.0 10132332
18:00+20ссв55340 0.0 1013752
21:00+13всв34650 0.0 1017100